Date,TemperatureHighF,TemperatureAvgF,TemperatureLowF,DewpointHighF,DewpointAvgF,DewpointLowF,HumidityHigh,HumidityAvg,HumidityLow,PressureMaxIn,PressureMinIn,WindSpeedMaxMPH,WindSpeedAvgMPH,GustSpeedMaxMPH,PrecipitationSumIn
2013-9-1,74.8,63.2,50.9,60.0,54.8,50.0,98,76,51,30.25,30.16,10,2,14,0.00
2013-9-2,76.9,63.5,51.8,56.0,50.3,43.0,92,66,30,30.28,30.21,12,3,17,0.00
2013-9-3,79.9,61.1,45.8,58.0,50.4,44.0,96,72,36,30.30,30.19,7,1,10,0.00
2013-9-4,78.4,63.8,50.6,64.0,57.4,50.0,98,81,57,30.22,30.05,3,1,6,0.00
2013-9-5,81.8,66.8,53.5,66.0,59.8,53.0,99,80,54,30.08,29.86,4,1,6,0.00
2013-9-6,83.1,70.3,59.3,66.0,61.2,58.0,98,76,44,29.93,29.81,7,1,22,0.09
2013-9-7,73.7,66.0,60.6,66.0,62.9,60.0,99,90,73,30.03,29.90,5,1,26,0.99
2013-9-8,69.2,62.3,57.2,65.0,60.7,57.0,99,94,73,30.13,30.00,5,1,10,1.02
2013-9-9,69.7,60.6,52.9,57.0,52.2,48.0,99,76,49,30.19,30.06,7,2,13,0.02
2013-9-10,68.3,59.2,51.0,57.0,53.8,50.0,97,83,57,30.08,30.00,11,3,17,0.10
2013-9-11,62.9,53.1,45.6,52.0,48.5,45.0,98,86,62,30.10,30.05,7,1,11,0.01
2013-9-12,60.7,54.1,49.9,54.0,50.9,48.0,98,89,73,30.16,30.05,6,0,7,0.06
2013-9-13,66.2,56.2,44.9,54.0,50.4,44.0,99,82,57,30.21,30.14,4,1,7,0.00
2013-9-14,68.7,60.1,49.5,61.0,56.0,48.0,99,87,68,30.17,29.92,4,0,7,0.06
2013-9-15,66.2,60.1,57.5,60.0,56.8,52.0,99,89,73,29.93,29.83,11,2,20,0.20
2013-9-16,61.1,55.4,51.6,57.0,51.7,46.0,97,87,75,29.93,29.69,11,3,19,0.24
2013-9-17,59.0,52.8,46.1,48.0,45.8,42.0,97,78,58,29.90,29.79,16,4,20,0.22
2013-9-18,69.8,61.1,50.9,60.0,55.6,45.0,95,82,67,29.81,29.69,22,7,27,0.20
2013-9-19,64.7,57.6,48.9,54.0,51.3,48.0,96,81,59,30.01,29.80,8,1,11,0.01
2013-9-20,67.7,55.2,43.8,59.0,51.2,43.0,99,87,69,30.17,30.01,4,1,6,0.00
2013-9-21,68.4,55.3,44.1,58.0,51.3,44.0,100,87,63,30.29,30.17,6,1,10,0.01
2013-9-22,70.5,55.3,44.3,58.0,51.2,44.0,100,87,58,30.34,30.24,6,1,10,0.01
2013-9-23,69.0,55.4,43.7,57.0,51.0,43.0,99,87,61,30.27,30.11,6,1,8,0.01
2013-9-24,68.0,55.3,44.8,60.0,52.6,44.0,99,91,74,30.13,29.93,4,1,6,0.01
2013-9-25,76.6,60.3,46.9,63.0,55.3,47.0,100,85,57,29.96,29.87,9,1,13,0.01
2013-9-26,72.4,61.2,52.8,64.0,58.0,52.0,99,89,72,29.98,29.92,4,0,6,0.00
2013-9-27,70.7,60.6,51.5,63.0,57.5,51.0,99,90,74,29.96,29.86,4,0,6,0.01
2013-9-28,68.8,60.6,51.8,64.0,58.7,52.0,100,93,80,29.86,29.68,5,1,8,0.00
2013-9-29,66.1,59.2,54.8,62.0,58.3,54.0,100,96,84,29.70,29.60,10,0,13,1.33
2013-9-30,66.1,59.8,56.3,62.0,58.5,56.0,100,95,81,29.74,29.64,4,0,6,0.02